Springfield, VT

3:37 AM EDT on July 27, 2017 (GMT -0400)
Hartness State

Weather History for KVSF - December, 2014

Change the Weather History Date:

Thursday, December 11, 2014

  Actual Average Record
Temperature  
Mean Temperature 31 °F 27 °F  
Max Temperature 33 °F 36 °F 47 °F (2015)
Min Temperature 29 °F 19 °F 1 °F (2016)
Degree Days  
Heating Degree Days 34 38  
Month to date heating degree days 379 394  
Since 1 July heating degree days 1782 2037  
Cooling Degree Days 0 0  
Month to date cooling degree days 0 0  
Year to date cooling degree days 282 345  
Moisture  
Dew Point 29 °F    
Average Humidity 91    
Maximum Humidity 100    
Minimum Humidity 82    
Precipitation  
Precipitation 0.03 in 0.12 in 1.68 in (2003)
Month to date precipitation 2.90 1.26  
Year to date precipitation 39.23 41.84  
Sea Level Pressure  
Sea Level Pressure 29.59 in    
Wind  
Wind Speed 1 mph (SW)    
Max Wind Speed 9 mph    
Max Gust Speed 12 mph    
Visibility 6 miles    
Events Rain , Snow    
T = Trace of Precipitation, MM = Missing Value Source: NWS Daily Summary

Daily Weather History Graph

Daily Weather History Graph

Search for Another Location

Airport or City:

Trip Planner

Search our weather history database for the weather conditions in past years. The results will help you decide how hot, cold, wet, or windy it might be!

Date:

Astronomy

Dec. 11, 2014 Rise Set
Actual Time 7:12 AM EST 4:14 PM EST
Civil Twilight 6:39 AM EST 4:46 PM EST
Nautical Twilight 6:03 AM EST 5:22 PM EST
Astronomical Twilight 5:29 AM EST 5:57 PM EST
Moon 9:28 PM EST (12/11) 10:28 AM EST (12/11)
Length of Visible Light 10h 06m
Length of Day
9h 01m
Waning Gibbous, 75% of the Moon is Illuminated
Dec 11
Waning Gibbous
Dec 14
Last Quarter
Dec 21
New
Dec 28
First Quarter
Jan 4
Full

Hourly Weather History & Observations

Time (EST) Temp. Windchill Dew Point Humidity Pressure Visibility Wind Dir Wind Speed Gust Speed Precip Events Conditions
12:19 AM 32.0 °F - 28.9 °F 88% 29.46 in 3.0 mi Calm Calm - 0.00 in Snow Light Snow
12:54 AM 30.9 °F - 30.0 °F 96% 29.48 in 5.0 mi Calm Calm - 0.00 in   Overcast
1:12 AM 30.9 °F - 30.0 °F 96% 29.46 in 4.0 mi Calm Calm - 0.01 in Snow Light Snow
1:34 AM 30.9 °F - 30.0 °F 96% 29.46 in 5.0 mi Calm Calm - 0.01 in   Overcast
1:54 AM 30.9 °F - 30.0 °F 96% 29.49 in 5.0 mi Calm Calm - 0.01 in   Overcast
2:54 AM 30.9 °F - 30.0 °F 96% 29.50 in 6.0 mi Calm Calm - N/A   Overcast
3:34 AM 30.9 °F - 28.9 °F 92% 29.48 in 3.0 mi Calm Calm - 0.00 in Rain Light Freezing Rain
3:52 AM 30.2 °F - 28.4 °F 93% 29.48 in 4.0 mi Calm Calm - 0.01 in   Overcast
3:54 AM 30.9 °F - 28.9 °F 92% 29.51 in 4.0 mi Calm Calm - 0.01 in   Overcast
4:54 AM 30.9 °F - 28.9 °F 92% 29.51 in 5.0 mi Calm Calm - N/A   Overcast
5:54 AM 30.9 °F - 28.9 °F 92% 29.52 in 10.0 mi Calm Calm - N/A   Overcast
6:54 AM 30.9 °F 27.5 °F 28.9 °F 92% 29.53 in 10.0 mi East 3.5 mph - N/A   Overcast
7:54 AM 30.9 °F - 28.0 °F 89% 29.55 in 10.0 mi Calm Calm - N/A   Overcast
8:54 AM 30.9 °F - 28.0 °F 89% 29.57 in 7.0 mi Calm Calm - 0.00 in Snow Light Snow
9:54 AM 32.0 °F - 28.0 °F 85% 29.59 in 8.0 mi Calm Calm - 0.00 in Snow Light Snow
10:08 AM 32.0 °F - 30.0 °F 92% 29.56 in 1.8 mi Calm Calm - 0.00 in Snow Light Snow
10:16 AM 32.0 °F 28.7 °F 30.0 °F 92% 29.56 in 1.5 mi South 3.5 mph - 0.00 in Snow Light Snow
10:32 AM 32.0 °F - 30.0 °F 92% 29.56 in 2.0 mi Calm Calm - 0.00 in Snow Light Snow
10:54 AM 32.0 °F - 30.0 °F 92% 29.58 in 4.0 mi Calm Calm - 0.01 in Snow Light Snow
11:54 AM 33.1 °F - 30.9 °F 92% 29.58 in 2.5 mi Calm Calm - 0.00 in Snow Light Snow
12:08 PM 33.1 °F - 30.0 °F 89% 29.56 in 4.0 mi Calm Calm - 0.00 in Snow Light Snow
12:54 PM 33.1 °F - 30.0 °F 89% 29.59 in 2.5 mi Calm Calm - 0.00 in Snow Light Snow
1:06 PM 33.1 °F - 30.9 °F 92% 29.57 in 1.8 mi Calm Calm - 0.00 in Snow Light Snow
1:41 PM 33.1 °F 26.9 °F 28.9 °F 85% 29.58 in 2.0 mi WSW 6.9 mph - 0.00 in Snow Light Snow
1:54 PM 33.1 °F 26.9 °F 28.9 °F 85% 29.60 in 2.5 mi WSW 6.9 mph - 0.00 in Snow Light Snow
2:04 PM 33.1 °F 27.7 °F 30.0 °F 89% 29.58 in 3.0 mi WSW 5.8 mph - 0.00 in Snow Light Snow
2:18 PM 32.0 °F 27.5 °F 28.9 °F 88% 29.59 in 2.5 mi WSW 4.6 mph - 0.00 in Snow Light Snow
2:30 PM 32.0 °F 26.4 °F 28.9 °F 88% 29.60 in 3.0 mi WSW 5.8 mph - 0.00 in Snow Light Snow
2:54 PM 32.0 °F 27.5 °F 28.0 °F 85% 29.63 in 10.0 mi SW 4.6 mph - 0.00 in   Overcast
3:09 PM 32.0 °F 26.4 °F 27.0 °F 82% 29.62 in 10.0 mi SW 5.8 mph - N/A   Overcast
3:54 PM 32.0 °F - 28.0 °F 85% 29.65 in 10.0 mi Calm Calm - N/A   Overcast
4:54 PM 30.9 °F 25.2 °F 28.0 °F 89% 29.68 in 10.0 mi South 5.8 mph - N/A   Overcast
5:54 PM 30.0 °F - 28.0 °F 92% 29.69 in 10.0 mi Calm Calm - 0.00 in   Overcast
6:54 PM 30.0 °F - 28.0 °F 92% 29.72 in 10.0 mi Calm Calm - N/A   Overcast
7:54 PM 30.0 °F - 28.0 °F 92% 29.74 in 10.0 mi Calm Calm - N/A   Overcast
8:54 PM 30.0 °F - 28.0 °F 92% 29.75 in 10.0 mi Calm Calm - N/A   Overcast
9:23 PM 30.0 °F - 28.0 °F 92% 29.74 in 10.0 mi Calm Calm - N/A   Overcast
9:54 PM 30.0 °F - 28.9 °F 96% 29.77 in 5.0 mi Calm Calm - 0.00 in Snow Light Snow
10:54 PM 30.0 °F - 28.0 °F 92% 29.78 in 8.0 mi Calm Calm - 0.00 in   Overcast
11:54 PM 28.9 °F - 28.0 °F 96% 29.79 in 7.0 mi Calm Calm - N/A   Overcast